| time (UTC) | temp F | wind direction | speed knots | gust knots | rain 1hr in | rain 24hr in | rain mn in | humidity % | barometer mb |
| 20260507085917 | 53 | -1 | 14.8 | 23.5 | 0.00 | 0.00 | 0.00 | 7 | 992.0 |
| 20260507085410 | 54 | -1 | 14.8 | 26.1 | 0.00 | 0.00 | 0.00 | 7 | 993.9 |
| 20260507084903 | 54 | -1 | 15.6 | 21.7 | 0.00 | 0.00 | 0.00 | 7 | 995.1 |
| 20260507084356 | 54 | -1 | 14.8 | 25.2 | 0.00 | 0.00 | 0.00 | 8 | 991.9 |
| 20260507083849 | 54 | -1 | 13.9 | 21.7 | 0.00 | 0.00 | 0.00 | 7 | 994.9 |
| 20260507083341 | 53 | -1 | 13.0 | 19.1 | 0.00 | 0.00 | 0.00 | 8 | 994.8 |
| 20260507082834 | 53 | -1 | 15.6 | 24.3 | 0.00 | 0.00 | 0.00 | 8 | 992.8 |
| 20260507082327 | 53 | -1 | 14.8 | 23.5 | 0.00 | 0.00 | 0.00 | 7 | 992.8 |
| 20260507081819 | 53 | -1 | 16.5 | 23.5 | 0.00 | 0.00 | 0.00 | 8 | 993.4 |
| 20260507081312 | 54 | -1 | 14.8 | 22.6 | 0.00 | 0.00 | 0.00 | 8 | 995.1 |
| 20260507080804 | 54 | -1 | 13.9 | 20.9 | 0.00 | 0.00 | 0.00 | 8 | 994.1 |
| 20260507080257 | 54 | -1 | 14.8 | 22.6 | 0.00 | 0.00 | 0.00 | 8 | 994.6 |
| 20260507075750 | 53 | -1 | 16.5 | 26.1 | 0.00 | 0.00 | 0.00 | 8 | 993.0 |
| 20260507075243 | 54 | -1 | 17.4 | 25.2 | 0.00 | 0.00 | 0.00 | 8 | 992.5 |
| 20260507074735 | 54 | -1 | 14.8 | 21.7 | 0.00 | 0.00 | 0.00 | 8 | 992.9 |
| 20260507074228 | 54 | -1 | 15.6 | 21.7 | 0.00 | 0.00 | 0.00 | 8 | 994.2 |
| 20260507073721 | 53 | -1 | 15.6 | 24.3 | 0.00 | 0.00 | 0.00 | 8 | 994.1 |
| 20260507073213 | 53 | -1 | 17.4 | 23.5 | 0.00 | 0.00 | 0.00 | 8 | 994.0 |
| 20260507072706 | 53 | -1 | 15.6 | 22.6 | 0.00 | 0.00 | 0.00 | 9 | 994.6 |
| 20260507072158 | 53 | -1 | 17.4 | 27.8 | 0.00 | 0.00 | 0.00 | 8 | 993.4 |
| 20260507071651 | 53 | -1 | 16.5 | 23.5 | 0.00 | 0.00 | 0.00 | 8 | 996.3 |
| 20260507071144 | 52 | -1 | 20.0 | 29.5 | 0.00 | 0.00 | 0.00 | 8 | 993.7 |
| 20260507070636 | 53 | -1 | 16.5 | 24.3 | 0.00 | 0.00 | 0.00 | 8 | 992.4 |
| 20260507070129 | 53 | -1 | 16.5 | 25.2 | 0.00 | 0.00 | 0.00 | 8 | 995.8 |
| 20260507065622 | 53 | -1 | 17.4 | 29.5 | 0.00 | 0.00 | 0.00 | 8 | 994.3 |
| 20260507065114 | 52 | -1 | 16.5 | 25.2 | 0.00 | 0.00 | 0.00 | 8 | 995.3 |
| 20260507064607 | 53 | -1 | 16.5 | 24.3 | 0.00 | 0.00 | 0.00 | 9 | 996.3 |
| 20260507064100 | 53 | -1 | 13.9 | 23.5 | 0.00 | 0.00 | 0.00 | 8 | 995.0 |
| 20260507063552 | 53 | -1 | 14.8 | 23.5 | 0.00 | 0.00 | 0.00 | 8 | 997.2 |
| 20260507063045 | 53 | -1 | 13.0 | 20.0 | 0.00 | 0.00 | 0.00 | 8 | 995.3 |
| 20260507062538 | 52 | -1 | 15.6 | 26.1 | 0.00 | 0.00 | 0.00 | 8 | 995.8 |
| 20260507062032 | 52 | -1 | 18.2 | 26.9 | 0.00 | 0.00 | 0.00 | 9 | 994.4 |
| 20260507061523 | 52 | -1 | 18.2 | 27.8 | 0.00 | 0.00 | 0.00 | 8 | 994.5 |
| 20260507061016 | 52 | -1 | 17.4 | 26.1 | 0.00 | 0.00 | 0.00 | 9 | 997.4 |
| 20260507060507 | 52 | -1 | 18.2 | 28.7 | 0.00 | 0.00 | 0.00 | 9 | 995.8 |
| 20260507055959 | 52 | -1 | 13.9 | 22.6 | 0.00 | 0.00 | 0.00 | 9 | 996.9 |
| 20260507055452 | 52 | -1 | 13.9 | 20.0 | 0.00 | 0.00 | 0.00 | 9 | 996.2 |
| 20260507054944 | 51 | 225 | 13.0 | 20.9 | 0.00 | 0.00 | 0.00 | 9 | 998.1 |
| 20260507054437 | 51 | -1 | 12.2 | 19.1 | 0.00 | 0.00 | 0.00 | 9 | 995.4 |
| 20260507053930 | 51 | -1 | 13.0 | 19.1 | 0.00 | 0.00 | 0.00 | 9 | 995.8 |
| 20260507053423 | 51 | -1 | 14.8 | 21.7 | 0.00 | 0.00 | 0.00 | 9 | 997.3 |
| 20260507052916 | 51 | 225 | 13.0 | 18.2 | 0.00 | 0.00 | 0.00 | 9 | 996.5 |
| 20260507052408 | 51 | 225 | 13.0 | 20.0 | 0.00 | 0.00 | 0.00 | 9 | 996.4 |
| 20260507051901 | 51 | -1 | 14.8 | 20.9 | 0.00 | 0.00 | 0.00 | 9 | 995.7 |
| 20260507051353 | 51 | -1 | 13.9 | 20.9 | 0.00 | 0.00 | 0.00 | 9 | 995.8 |
| 20260507050846 | 51 | -1 | 12.2 | 20.0 | 0.00 | 0.00 | 0.00 | 9 | 996.2 |
| 20260507050339 | 51 | -1 | 12.2 | 16.5 | 0.00 | 0.00 | 0.00 | 9 | 997.3 |
| 20260507045832 | 50 | -1 | 12.2 | 19.1 | 0.00 | 0.00 | 0.00 | 9 | 996.2 |
| 20260507045325 | 50 | -1 | 10.4 | 15.6 | 0.00 | 0.00 | 0.00 | 10 | 996.8 |
| 20260507044818 | 50 | 225 | 9.6 | 14.8 | 0.00 | 0.00 | 0.00 | 9 | 997.4 |
| 20260507044311 | 50 | 225 | 8.7 | 13.9 | 0.00 | 0.00 | 0.00 | 10 | 997.3 |
| 20260507043804 | 50 | 225 | 9.6 | 13.0 | 0.00 | 0.00 | 0.00 | 10 | 998.6 |
| 20260507043257 | 50 | 225 | 10.4 | 18.2 | 0.00 | 0.00 | 0.00 | 10 | 997.3 |
| 20260507042750 | 50 | 225 | 11.3 | 16.5 | 0.00 | 0.00 | 0.00 | 10 | 998.0 |
| 20260507042243 | 50 | 225 | 10.4 | 15.6 | 0.00 | 0.00 | 0.00 | 10 | 997.4 |
| 20260507041736 | 50 | -1 | 8.7 | 13.0 | 0.00 | 0.00 | 0.00 | 10 | 995.5 |
| 20260507041229 | 50 | -1 | 10.4 | 16.5 | 0.00 | 0.00 | 0.00 | 9 | 996.5 |
| 20260507040722 | 50 | 225 | 8.7 | 13.0 | 0.00 | 0.00 | 0.00 | 10 | 995.8 |
| 20260507040215 | 50 | 225 | 9.6 | 13.9 | 0.00 | 0.00 | 0.00 | 9 | 997.6 |
| 20260507035708 | 50 | -1 | 10.4 | 15.6 | 0.00 | 0.00 | 0.00 | 9 | 995.6 |
| 20260507035201 | 50 | 270 | 8.7 | 13.0 | 0.00 | 0.00 | 0.00 | 9 | 996.6 |
| 20260507034653 | 50 | 270 | 7.8 | 13.0 | 0.00 | 0.00 | 0.00 | 9 | 995.7 |
| 20260507034146 | 50 | 225 | 8.7 | 13.0 | 0.00 | 0.00 | 0.00 | 9 | 995.2 |
| 20260507033639 | 50 | 225 | 10.4 | 14.8 | 0.00 | 0.00 | 0.00 | 9 | 994.8 |
| 20260507033132 | 50 | 225 | 11.3 | 18.2 | 0.00 | 0.00 | 0.00 | 9 | 995.3 |
| 20260507032624 | 49 | 225 | 10.4 | 16.5 | 0.00 | 0.00 | 0.00 | 9 | 996.9 |
| 20260507032116 | 49 | -1 | 7.8 | 13.0 | 0.00 | 0.00 | 0.00 | 9 | 996.6 |
| 20260507031608 | 49 | 225 | 7.8 | 11.3 | 0.00 | 0.00 | 0.00 | 10 | 996.2 |
| 20260507031101 | 49 | 225 | 8.7 | 12.2 | 0.00 | 0.00 | 0.00 | 9 | 996.5 |
| 20260507030553 | 49 | 225 | 7.8 | 14.8 | 0.00 | 0.00 | 0.00 | 9 | 996.1 |
| 20260507030046 | 49 | 202 | 9.6 | 13.9 | 0.00 | 0.00 | 0.00 | 9 | 995.3 |
| 20260507025539 | 49 | 225 | 8.7 | 13.9 | 0.00 | 0.00 | 0.00 | 9 | 994.5 |
| 20260507025032 | 49 | -1 | 10.4 | 16.5 | 0.00 | 0.00 | 0.00 | 9 | 995.3 |
| 20260507024525 | 49 | 225 | 12.2 | 17.4 | 0.00 | 0.00 | 0.00 | 9 | 993.7 |
| 20260507024018 | 49 | 225 | 13.0 | 18.2 | 0.00 | 0.00 | 0.00 | 9 | 994.2 |
| 20260507023511 | 49 | 225 | 9.6 | 14.8 | 0.00 | 0.00 | 0.00 | 9 | 996.2 |
| 20260507023004 | 49 | 225 | 10.4 | 14.8 | 0.00 | 0.00 | 0.00 | 9 | 993.9 |
| 20260507022457 | 49 | 225 | 9.6 | 14.8 | 0.00 | 0.00 | 0.00 | 9 | 996.5 |
| 20260507021950 | 49 | 225 | 12.2 | 19.1 | 0.00 | 0.00 | 0.00 | 9 | 994.7 |
| 20260507021443 | 49 | 225 | 13.0 | 17.4 | 0.00 | 0.00 | 0.00 | 9 | 993.8 |
| 20260507020936 | 49 | 225 | 10.4 | 14.8 | 0.00 | 0.00 | 0.00 | 9 | 993.8 |
| 20260507020429 | 49 | 225 | 10.4 | 14.8 | 0.00 | 0.00 | 0.00 | 9 | 994.5 |
| 20260507015922 | 49 | 225 | 8.7 | 13.9 | 0.00 | 0.00 | 0.00 | 9 | 994.8 |
| 20260507015414 | 49 | 225 | 7.0 | 11.3 | 0.00 | 0.00 | 0.00 | 9 | 998.2 |
| 20260507014907 | 50 | -1 | 8.7 | 13.9 | 0.00 | 0.00 | 0.00 | 10 | 995.7 |
| 20260507014400 | 50 | -1 | 10.4 | 16.5 | 0.00 | 0.00 | 0.00 | 10 | 996.1 |
| 20260507013853 | 50 | 225 | 10.4 | 16.5 | 0.00 | 0.00 | 0.00 | 9 | 994.8 |
| 20260507013346 | 50 | 225 | 11.3 | 15.6 | 0.00 | 0.00 | 0.00 | 9 | 994.8 |
| 20260507012838 | 50 | 225 | 9.6 | 14.8 | 0.00 | 0.00 | 0.00 | 9 | 993.8 |
| 20260507012331 | 50 | 225 | 9.6 | 13.0 | 0.00 | 0.00 | 0.00 | 9 | 994.5 |
| 20260507011824 | 50 | 225 | 8.7 | 13.0 | 0.00 | 0.00 | 0.00 | 9 | 993.9 |
| 20260507011316 | 50 | 225 | 7.0 | 11.3 | 0.00 | 0.00 | 0.00 | 9 | 995.0 |
| 20260507010809 | 50 | 225 | 7.0 | 11.3 | 0.00 | 0.00 | 0.00 | 9 | 996.3 |
| 20260507010302 | 50 | 270 | 7.8 | 11.3 | 0.00 | 0.00 | 0.00 | 10 | 995.5 |
| 20260507005755 | 50 | 225 | 9.6 | 14.8 | 0.00 | 0.00 | 0.00 | 10 | 995.1 |
| 20260507005248 | 50 | 225 | 10.4 | 14.8 | 0.00 | 0.00 | 0.00 | 10 | 994.6 |
| 20260507004741 | 50 | 225 | 10.4 | 15.6 | 0.00 | 0.00 | 0.00 | 10 | 996.7 |
| 20260507004234 | 51 | -1 | 11.3 | 18.2 | 0.00 | 0.00 | 0.00 | 10 | 996.0 |
| 20260507003727 | 51 | -1 | 12.2 | 18.2 | 0.00 | 0.00 | 0.00 | 10 | 995.7 |
| 20260507003220 | 51 | -1 | 13.0 | 19.1 | 0.00 | 0.00 | 0.00 | 9 | 996.0 |
| 20260507002712 | 51 | -1 | 10.4 | 16.5 | 0.00 | 0.00 | 0.00 | 10 | 994.3 |
| 20260507002206 | 51 | -1 | 9.6 | 13.0 | 0.00 | 0.00 | 0.00 | 9 | 995.6 |
| 20260507001657 | 51 | -1 | 9.6 | 14.8 | 0.00 | 0.00 | 0.00 | 9 | 995.1 |
| 20260507001150 | 50 | 225 | 7.0 | 10.4 | 0.00 | 0.00 | 0.00 | 9 | 997.0 |
| 20260507000643 | 51 | -1 | 7.0 | 9.6 | 0.00 | 0.00 | 0.00 | 10 | 994.5 |
| 20260507000136 | 51 | 225 | 7.0 | 10.4 | 0.00 | 0.00 | 0.00 | 9 | 994.2 |
| 20260506235629 | 51 | 225 | 5.2 | 7.8 | 0.00 | 0.00 | 0.12 | 8 | 995.2 |
| 20260506235121 | 51 | 225 | 6.1 | 9.6 | 0.00 | 0.00 | 0.12 | 9 | 996.5 |
| 20260506234614 | 51 | 225 | 6.1 | 9.6 | 0.00 | 0.00 | 0.12 | 9 | 997.1 |
| 20260506234107 | 51 | -1 | 6.1 | 9.6 | 0.00 | 0.00 | 0.12 | 9 | 996.8 |
| 20260506233600 | 51 | 225 | 6.1 | 8.7 | 0.00 | 0.00 | 0.12 | 9 | 995.6 |
| 20260506233053 | 51 | -1 | 6.1 | 10.4 | 0.00 | 0.00 | 0.12 | 9 | 995.4 |
| 20260506232546 | 51 | -1 | 5.2 | 7.8 | 0.00 | 0.00 | 0.12 | 9 | 995.4 |
| 20260506232038 | 51 | -1 | 5.2 | 8.7 | 0.00 | 0.00 | 0.12 | 9 | 995.3 |
| 20260506231531 | 51 | -1 | 5.2 | 8.7 | 0.00 | 0.00 | 0.12 | 10 | 993.8 |
| 20260506231024 | 51 | -1 | 6.1 | 8.7 | 0.00 | 0.00 | 0.12 | 9 | 995.1 |
| 20260506230517 | 52 | -1 | 7.0 | 10.4 | 0.00 | 0.00 | 0.12 | 9 | 993.2 |
| 20260506230009 | 52 | -1 | 5.2 | 7.8 | 0.00 | 0.00 | 0.12 | 8 | 996.4 |
| 20260506225501 | 52 | -1 | 6.1 | 11.3 | 0.00 | 0.00 | 0.12 | 9 | 997.5 |
| 20260506224954 | 52 | -1 | 6.1 | 11.3 | 0.00 | 0.00 | 0.12 | 10 | 995.6 |
| 20260506224447 | 52 | -1 | 7.0 | 10.4 | 0.00 | 0.00 | 0.12 | 9 | 996.2 |
| 20260506223939 | 52 | -1 | 7.8 | 12.2 | 0.00 | 0.00 | 0.12 | 10 | 998.1 |
| 20260506223432 | 53 | -1 | 6.1 | 9.6 | 0.00 | 0.00 | 0.12 | 10 | 997.7 |
| 20260506222925 | 53 | -1 | 0.0 | 0.0 | 0.00 | 0.00 | 0.12 | 10 | 996.4 |
| 20260506222418 | 53 | -1 | 0.0 | 0.0 | 0.00 | 0.00 | 0.12 | 9 | 995.3 |
| 20260506221911 | 53 | -1 | 0.0 | 0.0 | 0.00 | 0.00 | 0.12 | 9 | 996.6 |
| 20260506221404 | 53 | -1 | 0.0 | 0.0 | 0.00 | 0.00 | 0.12 | 9 | 995.8 |
| 20260506220856 | 53 | -1 | 0.0 | 0.0 | 0.00 | 0.00 | 0.12 | 9 | 996.2 |
| 20260506220349 | 53 | -1 | 0.0 | 0.0 | 0.00 | 0.00 | 0.12 | 9 | 993.9 |
| 20260506215842 | 53 | 225 | 0.0 | 0.0 | 0.00 | 0.00 | 0.12 | 8 | 996.4 |
| 20260506215335 | 53 | -1 | 0.0 | 0.0 | 0.00 | 0.00 | 0.12 | 9 | 996.8 |
| 20260506214828 | 53 | -1 | 0.0 | 0.0 | 0.00 | 0.00 | 0.12 | 9 | 995.4 |
| 20260506214321 | 53 | -1 | 0.0 | 0.0 | 0.00 | 0.00 | 0.12 | 8 | 996.0 |
| 20260506213813 | 53 | -1 | 5.2 | 7.0 | 0.00 | 0.00 | 0.12 | 9 | 995.5 |
| 20260506213306 | 53 | -1 | 4.3 | 7.0 | 0.00 | 0.00 | 0.11 | 10 | 996.9 |
| 20260506212759 | 53 | -1 | 3.5 | 6.1 | 0.00 | 0.00 | 0.11 | 9 | 996.8 |
| 20260506212251 | 53 | -1 | 6.1 | 11.3 | 0.00 | 0.00 | 0.11 | 9 | 995.2 |
| 20260506211743 | 53 | -1 | 6.1 | 8.7 | 0.00 | 0.00 | 0.10 | 8 | 994.8 |
| 20260506211235 | 54 | -1 | 5.2 | 7.8 | 0.00 | 0.00 | 0.10 | 8 | 995.1 |
| 20260506210727 | 54 | -1 | 5.2 | 8.7 | 0.00 | 0.00 | 0.10 | 8 | 996.2 |
| 20260506210220 | 54 | -1 | 6.1 | 9.6 | 0.00 | 0.00 | 0.10 | 8 | 996.8 |
| 20260506205712 | 54 | -1 | 7.0 | 11.3 | 0.00 | 0.00 | 0.10 | 9 | 995.8 |
| 20260506205205 | 54 | -1 | 10.4 | 13.9 | 0.00 | 0.00 | 0.10 | 9 | 995.9 |
| 20260506204658 | 54 | -1 | 9.6 | 13.0 | 0.00 | 0.00 | 0.10 | 9 | 996.6 |
| 20260506204151 | 54 | -1 | 0.0 | 0.0 | 0.00 | 0.00 | 0.10 | 9 | 995.4 |
| 20260506203644 | 54 | -1 | 0.0 | 0.0 | 0.00 | 0.00 | 0.10 | 8 | 994.0 |
| 20260506203136 | 54 | -1 | 0.0 | 0.0 | 0.00 | 0.00 | 0.10 | 9 | 995.5 |
| 20260506202629 | 54 | -1 | 4.3 | 7.8 | 0.00 | 0.00 | 0.10 | 9 | 994.8 |
| 20260506202121 | 54 | -1 | 7.0 | 14.8 | 0.00 | 0.00 | 0.10 | 8 | 994.0 |
| 20260506201613 | 54 | -1 | 10.4 | 15.6 | 0.00 | 0.00 | 0.10 | 8 | 992.3 |
| 20260506201106 | 54 | -1 | 8.7 | 13.0 | 0.00 | 0.00 | 0.09 | 8 | 993.0 |
| 20260506200558 | 54 | -1 | 7.8 | 12.2 | 0.00 | 0.00 | 0.09 | 8 | 994.6 |
| 20260506200050 | 54 | -1 | 7.8 | 13.0 | 0.00 | 0.00 | 0.09 | 8 | 994.2 |
| 20260506195542 | 54 | -1 | 6.1 | 9.6 | 0.00 | 0.00 | 0.09 | 8 | 994.9 |
| 20260506195035 | 54 | -1 | 7.8 | 13.0 | 0.00 | 0.00 | 0.09 | 8 | 995.4 |
| 20260506194528 | 54 | -1 | 9.6 | 14.8 | 0.00 | 0.00 | 0.09 | 8 | 995.2 |
| 20260506194021 | 55 | -1 | 6.1 | 8.7 | 0.00 | 0.00 | 0.09 | 7 | 993.8 |
| 20260506193513 | 56 | -1 | 0.0 | 0.0 | 0.00 | 0.00 | 0.08 | 7 | 995.1 |
| 20260506193005 | 56 | -1 | 0.0 | 0.0 | 0.00 | 0.00 | 0.08 | 8 | 994.4 |
| 20260506192458 | 55 | -1 | 0.0 | 0.0 | 0.00 | 0.00 | 0.08 | 8 | 994.8 |
| 20260506191950 | 56 | -1 | 0.0 | 0.0 | 0.00 | 0.00 | 0.08 | 8 | 994.7 |
| 20260506191442 | 56 | 0 | 0.0 | 0.0 | 0.00 | 0.00 | 0.08 | 8 | 994.1 |
| 20260506190934 | 56 | -1 | 0.0 | 0.0 | 0.00 | 0.00 | 0.08 | 8 | 993.3 |
| 20260506190427 | 57 | -1 | 2.6 | 4.3 | 0.00 | 0.00 | 0.08 | 8 | 992.7 |
| 20260506185920 | 56 | 0 | 0.0 | 0.0 | 0.00 | 0.00 | 0.08 | 8 | 991.6 |
| 20260506185413 | 56 | -1 | 0.0 | 0.0 | 0.00 | 0.00 | 0.08 | 8 | 993.7 |
| 20260506184904 | 56 | -1 | 0.0 | 0.0 | 0.00 | 0.00 | 0.08 | 9 | 993.7 |
| 20260506184356 | 56 | -1 | 2.6 | 5.2 | 0.00 | 0.00 | 0.08 | 9 | 993.6 |
| 20260506183849 | 56 | -1 | 4.3 | 6.1 | 0.00 | 0.00 | 0.08 | 9 | 993.5 |
| 20260506183342 | 56 | -1 | 4.3 | 7.8 | 0.00 | 0.00 | 0.08 | 9 | 993.2 |
| 20260506182834 | 57 | -1 | 5.2 | 8.7 | 0.00 | 0.00 | 0.08 | 9 | 992.4 |
| 20260506182326 | 57 | -1 | 7.0 | 13.9 | 0.00 | 0.00 | 0.08 | 9 | 992.5 |
| 20260506181819 | 57 | -1 | 6.1 | 13.0 | 0.00 | 0.00 | 0.08 | 8 | 991.6 |
| 20260506181312 | 57 | -1 | 8.7 | 13.0 | 0.00 | 0.00 | 0.08 | 8 | 991.2 |
| 20260506180803 | 58 | -1 | 6.1 | 11.3 | 0.00 | 0.00 | 0.08 | 8 | 991.1 |
| 20260506180256 | 58 | -1 | 7.8 | 11.3 | 0.00 | 0.00 | 0.08 | 8 | 991.5 |
| 20260506175749 | 58 | -1 | 7.0 | 11.3 | 0.00 | 0.00 | 0.08 | 8 | 990.7 |
| 20260506175242 | 58 | -1 | 3.5 | 7.0 | 0.00 | 0.00 | 0.08 | 8 | 991.2 |
| 20260506174735 | 58 | -1 | 4.3 | 7.8 | 0.00 | 0.00 | 0.08 | 8 | 992.2 |
| 20260506174227 | 57 | -1 | 5.2 | 10.4 | 0.00 | 0.00 | 0.08 | 8 | 993.7 |
| 20260506173720 | 57 | -1 | 0.0 | 0.0 | 0.00 | 0.00 | 0.08 | 9 | 993.6 |
| 20260506173212 | 57 | -1 | 3.5 | 6.1 | 0.00 | 0.00 | 0.08 | 8 | 994.7 |
| 20260506172704 | 57 | -1 | 5.2 | 7.0 | 0.00 | 0.00 | 0.08 | 9 | 994.8 |
| 20260506172157 | 58 | -1 | 0.0 | 0.0 | 0.00 | 0.00 | 0.08 | 9 | 993.9 |
| 20260506171649 | 58 | -1 | 0.0 | 0.0 | 0.00 | 0.00 | 0.08 | 9 | 993.3 |
| 20260506171141 | 58 | -1 | 3.5 | 7.0 | 0.00 | 0.00 | 0.08 | 8 | 993.2 |
| 20260506170634 | 58 | -1 | 4.3 | 7.0 | 0.00 | 0.00 | 0.08 | 8 | 993.0 |
| 20260506170127 | 58 | -1 | 4.3 | 7.8 | 0.00 | 0.00 | 0.08 | 8 | 993.1 |
| 20260506165620 | 58 | -1 | 5.2 | 8.7 | 0.00 | 0.00 | 0.08 | 8 | 993.1 |
| 20260506165112 | 58 | -1 | 4.3 | 7.8 | 0.00 | 0.00 | 0.08 | 8 | 992.6 |
| 20260506164605 | 58 | -1 | 5.2 | 7.8 | 0.00 | 0.00 | 0.08 | 7 | 993.1 |
| 20260506164057 | 58 | -1 | 4.3 | 7.0 | 0.00 | 0.00 | 0.08 | 8 | 992.4 |
| 20260506163549 | 59 | -1 | 5.2 | 7.0 | 0.00 | 0.00 | 0.08 | 8 | 991.9 |
| 20260506163042 | 59 | -1 | 5.2 | 8.7 | 0.00 | 0.00 | 0.08 | 8 | 991.9 |
| 20260506162535 | 58 | -1 | 5.2 | 9.6 | 0.00 | 0.00 | 0.08 | 8 | 993.6 |
| 20260506162028 | 59 | -1 | 8.7 | 11.3 | 0.00 | 0.00 | 0.08 | 8 | 989.8 |
| 20260506161521 | 58 | -1 | 7.8 | 11.3 | 0.00 | 0.00 | 0.08 | 6 | 987.0 |
| 20260506161014 | 59 | -1 | 5.2 | 9.6 | 0.00 | 0.00 | 0.07 | 8 | 992.9 |
| 20260506160506 | 59 | -1 | 6.1 | 8.7 | 0.00 | 0.00 | 0.07 | 7 | 995.3 |
| 20260506155958 | 60 | -1 | 0.0 | 0.0 | 0.00 | 0.00 | 0.07 | 9 | 998.9 |
| 20260506155451 | 59 | -1 | 4.3 | 7.0 | 0.00 | 0.00 | 0.07 | 9 | 995.7 |
| 20260506154944 | 59 | -1 | 3.5 | 5.2 | 0.00 | 0.00 | 0.07 | 9 | 996.1 |
| 20260506154437 | 59 | -1 | 4.3 | 7.0 | 0.00 | 0.00 | 0.07 | 9 | 995.8 |
| 20260506153930 | 59 | -1 | 5.2 | 9.6 | 0.00 | 0.00 | 0.07 | 9 | 995.2 |
| 20260506153423 | 59 | -1 | 4.3 | 8.7 | 0.00 | 0.00 | 0.07 | 8 | 995.1 |
| 20260506152916 | 59 | -1 | 5.2 | 7.8 | 0.00 | 0.00 | 0.07 | 9 | 996.5 |
| 20260506152409 | 59 | -1 | 5.2 | 8.7 | 0.00 | 0.00 | 0.07 | 8 | 995.9 |
| 20260506151901 | 59 | -1 | 0.0 | 0.0 | 0.00 | 0.00 | 0.07 | 9 | 997.3 |
| 20260506151353 | 59 | -1 | 4.3 | 7.0 | 0.00 | 0.00 | 0.07 | 9 | 996.7 |
| 20260506150846 | 59 | -1 | 5.2 | 7.8 | 0.00 | 0.00 | 0.07 | 9 | 994.4 |
| 20260506150339 | 59 | -1 | 4.3 | 7.0 | 0.00 | 0.00 | 0.07 | 9 | 997.5 |
| 20260506145831 | 59 | -1 | 5.2 | 7.8 | 0.00 | 0.00 | 0.07 | 9 | 996.4 |
| 20260506145323 | 59 | -1 | 7.0 | 10.4 | 0.00 | 0.00 | 0.07 | 9 | 997.0 |
| 20260506144816 | 58 | -1 | 10.4 | 22.6 | 0.00 | 0.00 | 0.07 | 9 | 989.2 |
| 20260506144308 | 58 | -1 | 14.8 | 22.6 | 0.00 | 0.00 | 0.04 | 7 | 991.6 |
| 20260506143800 | 61 | -1 | 7.0 | 10.4 | 0.00 | 0.00 | 0.01 | 5 | 992.4 |
| 20260506143253 | 63 | -1 | 0.0 | 0.0 | 0.00 | 0.00 | 0.00 | 4 | 992.2 |
| 20260506142746 | 64 | -1 | 0.0 | 0.0 | 0.00 | 0.00 | 0.00 | 5 | 992.7 |
| 20260506142239 | 64 | -1 | 0.0 | 0.0 | 0.00 | 0.00 | 0.00 | 5 | 991.0 |
| 20260506141731 | 64 | -1 | 0.0 | 0.0 | 0.00 | 0.00 | 0.00 | 5 | 990.7 |
| 20260506141224 | 64 | -1 | 0.0 | 0.0 | 0.00 | 0.00 | 0.00 | 5 | 990.0 |
| 20260506140717 | 64 | 180 | 0.0 | 0.0 | 0.00 | 0.00 | 0.00 | 4 | 991.9 |
| 20260506140210 | 64 | 135 | 0.0 | 0.0 | 0.00 | 0.00 | 0.00 | 4 | 992.7 |
| 20260506135702 | 64 | 135 | 0.0 | 0.0 | 0.00 | 0.00 | 0.00 | 4 | 993.3 |
| 20260506135155 | 64 | 90 | 3.5 | 4.3 | 0.00 | 0.00 | 0.00 | 5 | 990.3 |
| 20260506134647 | 64 | 90 | 0.0 | 0.0 | 0.00 | 0.00 | 0.00 | 5 | 991.7 |
| 20260506134140 | 66 | 90 | 0.0 | 0.0 | 0.00 | 0.00 | 0.00 | 4 | 993.8 |
| 20260506133633 | 66 | 90 | 0.0 | 0.0 | 0.00 | 0.00 | 0.00 | 4 | 993.5 |
| 20260506133126 | 65 | 90 | 0.0 | 0.0 | 0.00 | 0.00 | 0.00 | 4 | 994.2 |
| 20260506132619 | 64 | 270 | 2.6 | 4.3 | 0.00 | 0.00 | 0.00 | 5 | 992.9 |
| 20260506132112 | 64 | 315 | 3.5 | 4.3 | 0.00 | 0.00 | 0.00 | 5 | 991.0 |
| 20260506131604 | 64 | 315 | 5.2 | 8.7 | 0.00 | 0.00 | 0.00 | 5 | 990.8 |
| 20260506131057 | 64 | 315 | 4.3 | 8.7 | 0.00 | 0.00 | 0.00 | 5 | 991.2 |
| 20260506130549 | 64 | 315 | 4.3 | 6.1 | 0.00 | 0.00 | 0.00 | 5 | 990.5 |
| 20260506130041 | 64 | 315 | 5.2 | 8.7 | 0.00 | 0.00 | 0.00 | 5 | 990.5 |
| 20260506125534 | 64 | 315 | 5.2 | 7.8 | 0.00 | 0.00 | 0.00 | 5 | 990.3 |
| 20260506125026 | 63 | 270 | 5.2 | 7.8 | 0.00 | 0.00 | 0.00 | 5 | 990.9 |
| 20260506124518 | 63 | 270 | 6.1 | 9.6 | 0.00 | 0.00 | 0.00 | 5 | 990.8 |
| 20260506124010 | 63 | -1 | 6.1 | 11.3 | 0.00 | 0.00 | 0.00 | 5 | 991.8 |
| 20260506123503 | 63 | 225 | 5.2 | 7.8 | 0.00 | 0.00 | 0.00 | 5 | 991.3 |
| 20260506122956 | 63 | -1 | 7.0 | 11.3 | 0.00 | 0.00 | 0.00 | 5 | 989.8 |
| 20260506122448 | 63 | -1 | 8.7 | 12.2 | 0.00 | 0.00 | 0.00 | 5 | 989.4 |
| 20260506121940 | 64 | 270 | 7.8 | 13.0 | 0.00 | 0.00 | 0.00 | 5 | 988.7 |
| 20260506121433 | 64 | 270 | 3.5 | 5.2 | 0.00 | 0.00 | 0.00 | 5 | 990.3 |
| 20260506120926 | 63 | 90 | 5.2 | 9.6 | 0.00 | 0.00 | 0.00 | 5 | 993.3 |
| 20260506120420 | 63 | 225 | 8.7 | 13.9 | 0.00 | 0.00 | 0.00 | 5 | 992.5 |
| 20260506115912 | 64 | -1 | 9.6 | 15.6 | 0.00 | 0.00 | 0.00 | 5 | 993.2 |
| 20260506115405 | 64 | -1 | 7.8 | 11.3 | 0.00 | 0.00 | 0.00 | 5 | 991.4 |
| 20260506114858 | 63 | 270 | 9.6 | 13.0 | 0.00 | 0.00 | 0.00 | 5 | 989.5 |
| 20260506114350 | 63 | -1 | 7.8 | 12.2 | 0.00 | 0.00 | 0.00 | 5 | 991.4 |
| 20260506113843 | 63 | 315 | 9.6 | 14.8 | 0.00 | 0.00 | 0.00 | 5 | 993.0 |
| 20260506113336 | 63 | 225 | 8.7 | 15.6 | 0.00 | 0.00 | 0.00 | 5 | 992.7 |
| 20260506112829 | 63 | 225 | 7.0 | 12.2 | 0.00 | 0.00 | 0.00 | 5 | 993.8 |
| 20260506112322 | 62 | -1 | 10.4 | 14.8 | 0.00 | 0.00 | 0.00 | 5 | 990.9 |
| 20260506111814 | 61 | 225 | 9.6 | 13.9 | 0.00 | 0.00 | 0.00 | 5 | 991.9 |
| 20260506111306 | 61 | -1 | 11.3 | 20.0 | 0.00 | 0.00 | 0.00 | 5 | 992.3 |
| 20260506110759 | 61 | -1 | 8.7 | 18.2 | 0.00 | 0.00 | 0.00 | 5 | 992.2 |
| 20260506110252 | 61 | -1 | 10.4 | 17.4 | 0.00 | 0.00 | 0.00 | 6 | 990.9 |
| 20260506105745 | 61 | 225 | 10.4 | 17.4 | 0.00 | 0.00 | 0.00 | 5 | 991.3 |
| 20260506105237 | 61 | 225 | 10.4 | 18.2 | 0.00 | 0.00 | 0.00 | 6 | 992.6 |
| 20260506104730 | 61 | 225 | 10.4 | 20.0 | 0.00 | 0.00 | 0.00 | 5 | 992.5 |
| 20260506104223 | 61 | -1 | 10.4 | 16.5 | 0.00 | 0.00 | 0.00 | 7 | 991.5 |
| 20260506103715 | 61 | 225 | 12.2 | 16.5 | 0.00 | 0.00 | 0.00 | 6 | 990.9 |
| 20260506103208 | 61 | 225 | 8.7 | 13.9 | 0.00 | 0.00 | 0.00 | 6 | 993.8 |
| 20260506102701 | 60 | -1 | 12.2 | 19.1 | 0.00 | 0.00 | 0.00 | 6 | 990.2 |
| 20260506102153 | 60 | 225 | 11.3 | 20.9 | 0.00 | 0.00 | 0.00 | 6 | 990.4 |
| 20260506101646 | 60 | 225 | 10.4 | 17.4 | 0.00 | 0.00 | 0.00 | 6 | 993.2 |
| 20260506101139 | 59 | -1 | 11.3 | 18.2 | 0.00 | 0.00 | 0.00 | 6 | 992.5 |
| 20260506100632 | 60 | 225 | 7.8 | 13.0 | 0.00 | 0.00 | 0.00 | 6 | 994.7 |
| 20260506100124 | 59 | 270 | 9.6 | 16.5 | 0.00 | 0.00 | 0.00 | 6 | 992.0 |
| 20260506095617 | 60 | -1 | 10.4 | 17.4 | 0.00 | 0.00 | 0.00 | 6 | 992.3 |
| 20260506095110 | 60 | 225 | 13.0 | 18.2 | 0.00 | 0.00 | 0.00 | 6 | 992.6 |
| 20260506094603 | 61 | -1 | 10.4 | 17.4 | 0.00 | 0.00 | 0.00 | 6 | 992.9 |
| 20260506094055 | 60 | 225 | 10.4 | 17.4 | 0.00 | 0.00 | 0.00 | 6 | 993.4 |
| 20260506093547 | 60 | 270 | 9.6 | 18.2 | 0.00 | 0.00 | 0.00 | 6 | 991.5 |
| 20260506093040 | 59 | -1 | 10.4 | 17.4 | 0.00 | 0.00 | 0.00 | 7 | 990.5 |
| 20260506092533 | 59 | 225 | 10.4 | 14.8 | 0.00 | 0.00 | 0.00 | 6 | 990.5 |
| 20260506092026 | 60 | 270 | 11.3 | 17.4 | 0.00 | 0.00 | 0.00 | 6 | 991.4 |
| 20260506091518 | 59 | 225 | 13.9 | 18.2 | 0.00 | 0.00 | 0.00 | 6 | 991.8 |
| 20260506091010 | 59 | -1 | 11.3 | 18.2 | 0.00 | 0.00 | 0.00 | 6 | 991.2 |
| 20260506090502 | 59 | 180 | 13.0 | 20.0 | 0.00 | 0.00 | 0.00 | 6 | 991.2 |